Back to catalog

FREGAT DEB

LostUNKNOWN
NORAD 45956·DEBRIS·🇷🇺 Russia

Launched Jul 18, 2011 from Baikonur Cosmodrome

Loading…

Next Passes (next 24 hours)

TLE

StaleSource: Space-Track

Epoch: May 29, 2022, 15:49 UTC

1 45956U 11037FM  22149.65945694 -.00012279  00000-0 -36703-1 0  9990
2 45956  51.7549 283.0389 1860369  97.7280 283.7570 10.48784031 71681

Track FREGAT DEB in real time with AllMySat

Download on the App Store